Regional Weather Roundup
Issued by NWS

Home | Current Version | Previous Version | Text Only | Print | Product List | Glossary Off
Versions: 1 2 3 4 5 6 7 8 9 10 11 12 13 14 15 16 17 18 19 20 21 22 23 24 25 26 27 28 29 30 31 32 33 34 35 36 37 38 39 40 41 42 43 44 45 46 47 48 49 50

000
ASUS44 KMEG 251500
RWRTN
TENNESSEE HOURLY STATE WEATHER ROUNDUP
NATIONAL WEATHER SERVICE MEMPHIS TN
1000 AM CDT SUN JUN 25 2017

TNZ002-004-019-021-049-052-054-088>092-251600-
WEST TENNESSEE

CITY           SKY/WX    TMP DP  RH WIND       PRES   REMARKS
MEMPHIS INTL   MOSUNNY   79  58  48 N3        30.25S
NWS MEMPHIS      N/A     78 N/A N/A MISG        N/A
JACKSON        SUNNY     78  56  46 N6        30.25R
$$

TNZ008-025-027-028-033-062-065-066-251600-
NORTH MIDDLE TENNESSEE

CITY           SKY/WX    TMP DP  RH WIND       PRES   REMARKS
NASHVILLE      MOSUNNY   77  51  40 VRB6      30.24R
CLARKSVILLE    SUNNY     76  51  41 N7        30.24S
SMYRNA         SUNNY     74  56  53 VRB5      30.25R
CROSSVILLE     CLOUDY    69  50  50 N10       30.25S
$$

TNZ061-075-076-078-094-096-097-251600-
SOUTH MIDDLE TENNESSEE

CITY           SKY/WX    TMP DP  RH WIND       PRES   REMARKS
$$

TNZ017-018-042-046-047-251600-
NORTHEAST TENNESSEE

CITY           SKY/WX    TMP DP  RH WIND       PRES   REMARKS
TRI CITIES     PTSUNNY   72  56  57 CALM      30.20F
$$

TNZ012-013-036-069-073-074-251600-
CENTRAL EAST TENNESSEE

CITY           SKY/WX    TMP DP  RH WIND       PRES   REMARKS
KNOXVILLE      CLOUDY    68  57  68 N5        30.21R
OAK RIDGE      PTSUNNY   72  54  53 CALM      30.22S
GATLINBURG     SUNNY     72  59  64 CALM      30.21R
$$

TNZ083-085-099-251600-
SOUTHEAST TENNESSEE

CITY           SKY/WX    TMP DP  RH WIND       PRES   REMARKS
CHATTANOOGA    CLOUDY    70  56  61 N12       30.21S
$$

SKY/WX REPORTED AS FAIR MEANS FEW OR NO CLOUDS BELOW
12 THOUSAND FEET.





USA.gov is the U.S. government's official web portal to all federal, state and local government web resources and services.